TimeAKST,TemperatureF,Dew PointF,Humidity,Sea Level PressureIn,VisibilityMPH,Wind Direction,Wind SpeedMPH,Gust SpeedMPH,PrecipitationIn,Events,Conditions,WindDirDegrees,DateUTC
12:16 AM,30.2,19.4,64,29.96,10.0,South,13.8,21.9,N/A,,Clear,190,2013-01-15 09:16:00
12:36 AM,30.2,17.6,60,29.97,10.0,South,13.8,24.2,N/A,,Clear,190,2013-01-15 09:36:00
12:56 AM,30.2,17.6,60,29.98,10.0,South,13.8,20.7,N/A,,Clear,190,2013-01-15 09:56:00
1:16 AM,28.4,17.6,64,29.99,10.0,South,13.8,23.0,N/A,,Clear,180,2013-01-15 10:16:00
1:36 AM,28.4,17.6,64,30.00,10.0,South,13.8,25.3,N/A,,Clear,190,2013-01-15 10:36:00
1:56 AM,28.4,17.6,64,30.00,10.0,SSW,11.5,23.0,N/A,,Clear,200,2013-01-15 10:56:00
2:16 AM,28.4,15.8,59,30.01,10.0,SSW,11.5,19.6,N/A,,Clear,200,2013-01-15 11:16:00
2:36 AM,28.4,17.6,64,30.01,10.0,SSW,11.5,20.7,N/A,,Clear,200,2013-01-15 11:36:00
2:56 AM,28.4,17.6,64,30.01,10.0,SSW,8.1,19.6,N/A,,Clear,200,2013-01-15 11:56:00
3:16 AM,28.4,15.8,59,30.02,10.0,South,15.0,20.7,N/A,,Clear,190,2013-01-15 12:16:00
3:36 AM,28.4,15.8,59,30.02,10.0,SSW,11.5,18.4,N/A,,Clear,200,2013-01-15 12:36:00
3:56 AM,28.4,15.8,59,30.02,10.0,SSW,12.7,21.9,N/A,,Clear,200,2013-01-15 12:56:00
4:16 AM,28.4,14.0,55,30.03,10.0,South,9.2,17.3,N/A,,Clear,190,2013-01-15 13:16:00
4:36 AM,28.4,15.8,59,30.04,10.0,SSW,10.4,17.3,N/A,,Clear,200,2013-01-15 13:36:00
4:56 AM,28.4,15.8,59,30.04,10.0,SSW,10.4,18.4,N/A,,Clear,200,2013-01-15 13:56:00
5:16 AM,28.4,15.8,59,30.04,10.0,SSW,12.7,18.4,N/A,,Clear,210,2013-01-15 14:16:00
5:36 AM,28.4,17.6,64,30.05,10.0,South,6.9,17.3,N/A,,Clear,190,2013-01-15 14:36:00
5:56 AM,28.4,17.6,64,30.06,10.0,SSW,9.2,-,N/A,,Clear,200,2013-01-15 14:56:00
6:16 AM,28.4,15.8,59,30.06,10.0,South,11.5,-,N/A,,Clear,190,2013-01-15 15:16:00
6:36 AM,28.4,15.8,59,30.06,10.0,SSW,10.4,18.4,N/A,,Clear,200,2013-01-15 15:36:00
6:56 AM,28.4,15.8,59,30.07,10.0,South,9.2,-,N/A,,Clear,190,2013-01-15 15:56:00
7:16 AM,28.4,17.6,64,30.08,10.0,SSW,9.2,-,N/A,,Clear,200,2013-01-15 16:16:00
7:36 AM,28.4,17.6,64,30.09,10.0,South,4.6,-,N/A,,Clear,190,2013-01-15 16:36:00
7:56 AM,28.4,17.6,64,30.09,10.0,South,4.6,-,N/A,,Clear,180,2013-01-15 16:56:00
8:16 AM,28.4,17.6,64,30.10,10.0,SSW,3.5,-,N/A,,Clear,200,2013-01-15 17:16:00
8:36 AM,26.6,17.6,69,30.11,10.0,Calm,Calm,-,N/A,,Clear,0,2013-01-15 17:36:00
8:56 AM,26.6,17.6,69,30.12,10.0,South,6.9,-,N/A,,Clear,180,2013-01-15 17:56:00
9:16 AM,28.4,19.4,69,30.12,10.0,SSW,5.8,-,N/A,,Clear,200,2013-01-15 18:16:00
9:36 AM,26.6,19.4,74,30.13,10.0,South,4.6,-,N/A,,Clear,180,2013-01-15 18:36:00
9:56 AM,26.6,19.4,74,30.14,10.0,South,6.9,-,N/A,,Clear,180,2013-01-15 18:56:00
10:16 AM,26.6,19.4,74,30.14,10.0,Calm,Calm,-,N/A,,Clear,0,2013-01-15 19:16:00
10:36 AM,26.6,19.4,74,30.14,10.0,South,4.6,-,N/A,,Clear,180,2013-01-15 19:36:00
10:56 AM,28.4,19.4,69,30.15,10.0,South,3.5,-,N/A,,Clear,180,2013-01-15 19:56:00
11:16 AM,28.4,19.4,69,30.16,10.0,South,4.6,-,N/A,,Clear,180,2013-01-15 20:16:00
11:36 AM,28.4,19.4,69,30.17,10.0,South,5.8,-,N/A,,Clear,170,2013-01-15 20:36:00
11:56 AM,30.2,19.4,64,30.17,10.0,Calm,Calm,-,N/A,,Clear,0,2013-01-15 20:56:00
12:16 PM,30.2,19.4,64,30.17,10.0,SSW,3.5,-,N/A,,Clear,200,2013-01-15 21:16:00
12:36 PM,30.2,19.4,64,30.17,10.0,SSW,4.6,-,N/A,,Clear,210,2013-01-15 21:36:00
12:56 PM,30.2,19.4,64,30.17,10.0,SSW,5.8,-,N/A,,Clear,200,2013-01-15 21:56:00
1:16 PM,30.2,17.6,60,30.17,10.0,South,3.5,-,N/A,,Clear,190,2013-01-15 22:16:00
1:36 PM,30.2,19.4,64,30.17,10.0,South,3.5,-,N/A,,Clear,190,2013-01-15 22:36:00
1:56 PM,30.2,19.4,64,30.17,10.0,SSW,3.5,-,N/A,,Clear,200,2013-01-15 22:56:00
2:16 PM,30.2,19.4,64,30.17,10.0,SSW,3.5,-,N/A,,Clear,200,2013-01-15 23:16:00
2:36 PM,30.2,19.4,64,30.17,10.0,SSW,4.6,-,N/A,,Mostly Cloudy,210,2013-01-15 23:36:00
2:56 PM,30.2,19.4,64,30.17,10.0,SW,3.5,-,N/A,,Overcast,230,2013-01-15 23:56:00
3:16 PM,30.2,19.4,64,30.17,10.0,SW,5.8,-,N/A,,Overcast,230,2013-01-16 00:16:00
3:36 PM,30.2,19.4,64,30.18,10.0,WSW,5.8,-,N/A,,Overcast,240,2013-01-16 00:36:00
3:56 PM,30.2,19.4,64,30.18,10.0,SW,3.5,-,N/A,,Overcast,230,2013-01-16 00:56:00
4:16 PM,30.2,19.4,64,30.18,10.0,SW,3.5,-,N/A,,Overcast,230,2013-01-16 01:16:00
4:36 PM,30.2,19.4,64,30.19,10.0,SSW,4.6,-,N/A,,Overcast,210,2013-01-16 01:36:00
4:56 PM,30.2,19.4,64,30.19,10.0,Calm,Calm,-,N/A,,Overcast,0,2013-01-16 01:56:00
5:16 PM,28.4,19.4,69,30.19,10.0,Calm,Calm,-,N/A,,Overcast,0,2013-01-16 02:16:00
5:36 PM,26.6,17.6,69,30.19,10.0,Calm,Calm,-,N/A,,Overcast,0,2013-01-16 02:36:00
5:56 PM,24.8,17.6,74,30.19,10.0,Calm,Calm,-,N/A,,Overcast,0,2013-01-16 02:56:00
6:16 PM,24.8,17.6,74,30.19,10.0,Calm,Calm,-,N/A,,Overcast,0,2013-01-16 03:16:00
6:36 PM,23.0,17.6,80,30.20,10.0,Calm,Calm,-,N/A,,Overcast,0,2013-01-16 03:36:00
6:56 PM,23.0,17.6,80,30.20,10.0,Calm,Calm,-,N/A,,Overcast,0,2013-01-16 03:56:00
7:16 PM,24.8,17.6,74,30.20,10.0,Calm,Calm,-,N/A,,Mostly Cloudy,0,2013-01-16 04:16:00
7:36 PM,21.2,17.6,86,30.20,10.0,Calm,Calm,-,N/A,,Mostly Cloudy,0,2013-01-16 04:36:00
7:56 PM,21.2,17.6,86,30.20,10.0,Calm,Calm,-,N/A,,Partly Cloudy,0,2013-01-16 04:56:00
8:16 PM,21.2,17.6,86,30.19,10.0,Calm,Calm,-,N/A,,Mostly Cloudy,0,2013-01-16 05:16:00
8:36 PM,21.2,17.6,86,30.19,10.0,Calm,Calm,-,N/A,,Overcast,0,2013-01-16 05:36:00
8:56 PM,21.2,17.6,86,30.20,10.0,East,3.5,-,N/A,,Overcast,100,2013-01-16 05:56:00
9:16 PM,23.0,17.6,80,30.19,10.0,Calm,Calm,-,N/A,,Overcast,0,2013-01-16 06:16:00
9:36 PM,24.8,19.4,80,30.18,10.0,Calm,Calm,-,N/A,,Overcast,0,2013-01-16 06:36:00
9:56 PM,23.0,19.4,86,30.18,10.0,ENE,3.5,-,N/A,,Overcast,60,2013-01-16 06:56:00
10:16 PM,24.8,19.4,80,30.18,10.0,Calm,Calm,-,N/A,,Overcast,0,2013-01-16 07:16:00
10:36 PM,24.8,19.4,80,30.17,10.0,Calm,Calm,-,N/A,,Overcast,0,2013-01-16 07:36:00
10:56 PM,24.8,19.4,80,30.17,10.0,East,3.5,-,N/A,,Overcast,80,2013-01-16 07:56:00
11:16 PM,24.8,19.4,80,30.17,10.0,Calm,Calm,-,N/A,,Overcast,0,2013-01-16 08:16:00
11:36 PM,24.8,19.4,80,30.16,10.0,East,5.8,-,N/A,,Overcast,100,2013-01-16 08:36:00
11:56 PM,24.8,19.4,80,30.17,10.0,ENE,3.5,-,N/A,,Overcast,70,2013-01-16 08:56:00